Weather History for PHNG - June, 2013

Change the Weather History Date:

Thursday, June 20, 2013

  Actual Average Record
Temperature  
Mean Temperature 78 °F -  
Max Temperature 82 °F 79 °F 82 °F (2000)
Min Temperature 73 °F 71 °F 71 °F (1998)
Cooling Degree Days 12    
Growing Degree Days 28 (Base 50)    
Moisture  
Dew Point 68 °F    
Average Humidity 72    
Maximum Humidity 86    
Minimum Humidity 59    
Precipitation  
Precipitation 0.00 in - - ()
Sea Level Pressure  
Sea Level Pressure 30.04 in    
Wind  
Wind Speed 7 mph (ENE)    
Max Wind Speed 13 mph    
Max Gust Speed 23 mph    
Visibility 10 miles    
Events Rain    
Averages and records for this station are not official NWS values.
T = Trace of Precipitation, MM = Missing Value Source: NWS Daily Summary

Daily Weather History Graph

Daily Weather History Graph

Search for Another Location

Airport or City:

Trip Planner

Search our weather history database for the weather conditions in past years. The results will help you decide how hot, cold, wet, or windy it might be!

Date:

Astronomy

Jun. 20, 2013 Rise Set
Actual Time 5:49 AM HST 7:16 PM HST
Civil Twilight 5:24 AM HST 7:40 PM HST
Nautical Twilight 4:54 AM HST 8:10 PM HST
Astronomical Twilight 4:24 AM HST 8:41 PM HST
Moon 4:41 PM HST (6/20) 3:10 AM HST (6/20)
Length of Visible Light 14h 16m
Length of Day
13h 26m
Waxing Gibbous, 90% of the Moon is Illuminated
Jun 20
Waxing Gibbous
Jun 23
Full
Jun 29
Last Quarter
Jul 7
New
Jul 15
First Quarter

Hourly Weather History & Observations

Time (HST) Temp. Heat Index Dew Point Humidity Pressure Visibility Wind Dir Wind Speed Gust Speed Precip Events Conditions
12:57 AM 75.7 °F - 66.0 °F 72% 30.05 in 10.0 mi ENE 5.8 mph - N/A   Scattered Clouds
1:57 AM 75.7 °F - 66.9 °F 74% 30.03 in 10.0 mi ENE 4.6 mph - N/A   Scattered Clouds
2:57 AM 75.7 °F - 66.0 °F 72% 30.01 in - NE 6.9 mph - N/A   Scattered Clouds
3:57 AM 75.4 °F - 66.0 °F 73% 30.01 in 10.0 mi ENE 5.8 mph - 0.00 in   Partly Cloudy
4:57 AM 75.4 °F - 66.9 °F 75% 30.00 in 10.0 mi ENE 6.9 mph - 0.00 in   Scattered Clouds
5:57 AM 75.4 °F - 66.9 °F 75% 30.01 in 10.0 mi ENE 5.8 mph - N/A   Overcast
6:57 AM 75.2 °F - 66.9 °F 75% 30.03 in 10.0 mi ENE 3.5 mph - 0.00 in Rain Light Rain
7:57 AM 73.4 °F - 66.9 °F 80% 30.04 in 10.0 mi Variable 5.8 mph - 0.00 in   Mostly Cloudy
8:57 AM 73.4 °F - 69.1 °F 86% 30.04 in 10.0 mi ENE 9.2 mph - N/A   Overcast
9:57 AM 78.8 °F - 69.1 °F 72% 30.05 in 10.0 mi ENE 9.2 mph - N/A   Mostly Cloudy
10:57 AM 80.6 °F 82.9 °F 66.9 °F 63% 30.05 in 10.0 mi ENE 8.1 mph 16.1 mph N/A   Mostly Cloudy
11:57 AM 80.6 °F 83.2 °F 68.0 °F 65% 30.04 in 10.0 mi ENE 10.4 mph 17.3 mph 0.00 in   Mostly Cloudy
12:57 PM 80.6 °F 83.6 °F 69.1 °F 68% 30.03 in 10.0 mi ENE 11.5 mph - 0.00 in   Mostly Cloudy
1:57 PM 80.6 °F 83.6 °F 69.1 °F 68% 30.02 in 10.0 mi ENE 11.5 mph 17.3 mph N/A   Mostly Cloudy
2:57 PM 81.9 °F 84.1 °F 66.0 °F 59% 30.02 in 10.0 mi NE 9.2 mph - N/A   Mostly Cloudy
3:57 PM 80.6 °F 82.7 °F 66.0 °F 61% 30.01 in 10.0 mi NE 8.1 mph - 0.00 in   Mostly Cloudy
4:57 PM 82.4 °F 85.8 °F 69.1 °F 64% 30.01 in 10.0 mi ENE 8.1 mph - N/A   Overcast
5:57 PM 82.4 °F 85.4 °F 68.0 °F 62% 30.02 in 10.0 mi NE 6.9 mph - N/A   Mostly Cloudy
6:57 PM 78.8 °F - 68.0 °F 69% 30.03 in 10.0 mi NE 10.4 mph - N/A   Mostly Cloudy
7:43 PM 78.8 °F - 68.0 °F 69% 30.05 in 6.2 mi East 12.7 mph 23.0 mph 0.00 in Rain Light Rain
7:57 PM 78.8 °F - 68.0 °F 69% 30.05 in 5.0 mi East 8.1 mph 20.7 mph N/A Rain Rain
8:57 PM 77.0 °F - 71.1 °F 82% 30.06 in 10.0 mi NE 6.9 mph - N/A   Mostly Cloudy
9:04 PM 75.2 °F - 69.8 °F 83% 30.08 in 6.2 mi NE 3.5 mph - N/A Rain Light Rain
9:57 PM 75.2 °F - 70.0 °F 84% 30.07 in 10.0 mi NE 8.1 mph - N/A   Mostly Cloudy
10:57 PM 75.2 °F - 70.0 °F 84% 30.07 in 10.0 mi East 9.2 mph - N/A   Mostly Cloudy
11:57 PM 75.2 °F - 69.1 °F 81% 30.06 in 10.0 mi East 8.1 mph - N/A   Mostly Cloudy